International Virtual Aviation Organisation

Russian Federation and Kazakhstan MCD

 

Карточка аэропорта UUDL

Внимание!
Информация на этой странице в стадии наполнения.
Если вы не увидели какой-то информации, или заметили неточность - пожалуйста сообщите нам!
Спасибо!
Команда RU-STAFF
Название аэропортаТуношна
Название аэропорта (англ.)Tunoshna
Превышение305 ft. (93 m.)
Координаты57°33.636', 40°9.438'
Высота перехода700 m
Эшелон переходаFL050
Коды ответчика2750-2757
Зона ОрВДМосква РПИ (UUWV)
Данные METARUUDL 302200Z 20002MPS 9999 OVC024 05/01 Q1016 R23/010060 NOSIG RMK QFE754
Проноз погоды (TAF)UUDL 302000Z 3021/3121 VRB01MPS 8000 FEW007 BKN020 TX07/3112Z TN02/3103Z BECMG 3100/3102 BKN010 TEMPO 3102/3110 2000 BR BKN003
NOTAMshow/hide NOTAM
AWOS   TABLE

Информация о ВПП

ВПП Длина ВПП (м.) Покрытие Курс ВПП Частота ILS
053010Асфальтобетон51 
233010Асфальтобетон231110.5

Диспетчерские позиции




Спутниковое изображение